Regional Weather Roundup
Issued by NWS

Home | Current Version | Previous Version | Text Only | Print | Product List | Glossary Off
Versions: 1 2 3 4 5 6 7 8 9 10 11 12 13 14 15 16 17 18 19 20 21 22 23 24 25 26 27 28 29 30 31 32 33 34 35 36 37 38 39 40 41 42 43 44 45 46 47 48

000
ASUS45 KBOI 010510
RWRID
WEATHER ROUNDUP FOR IDAHO
NATIONAL WEATHER SERVICE BOISE ID
1100 PM MDT TUE SEP 30 2014

NOTE: "FAIR" INDICATES FEW OR NO CLOUDS BELOW 12000 FEET
WITH NO SIGNIFICANT WEATHER AND/OR OBSTRUCTIONS TO VISIBILITY

IDZ012-014-010600-
SOUTHWEST IDAHO


CITY           SKY/WX    TMP DP  RH WIND       PRES   REMARKS
BOISE          CLOUDY    53  37  54 NW9       30.02R
CALDWELL       CLOUDY    54  37  54 NW8       30.05R
MOUNTAIN HOME  MOCLDY    47  41  78 W10       30.01R
$$

IDZ016-017-010600-
SOUTHCENTRAL IDAHO


CITY           SKY/WX    TMP DP  RH WIND       PRES   REMARKS
BURLEY         CLEAR     47  32  56 S15       29.98S
JEROME         CLEAR     46  35  65 SW15      29.98S
TWIN FALLS     CLEAR     48  33  56 SW13      30.00R
$$

IDZ019>023-010600-
SOUTHEAST IDAHO


CITY           SKY/WX    TMP DP  RH WIND       PRES   REMARKS
IDAHO FALLS    RAIN      44  42  93 SW7       29.98R FOG
POCATELLO      CLEAR     47  34  60 SW18G30   29.98S
REXBURG        CLOUDY    43  39  86 SW3       29.93F
$$

IDZ006-010-011-018-031-032-010600-
CENTRAL IDAHO MOUNTAINS


CITY           SKY/WX    TMP DP  RH WIND       PRES   REMARKS
MCCALL         PTCLDY    40  34  79 N5        30.05R
HAILEY         PTCLDY    46  30  53 MISG      29.96S
STANLEY          N/A     33  30  88 CALM      30.05R
SALMON         CLOUDY    45  36  70 W5        30.01R
CHALLIS        PTCLDY    40  31  70 N6        30.01R
$$

IDZ002-004-006-007-026-010600-
NORTHERN IDAHO


CITY           SKY/WX    TMP DP  RH WIND       PRES   REMARKS
LEWISTON       PTCLDY    54  43  66 E8        30.01S
LOWELL           N/A     51  49  92 CALM      30.06R
COEUR D`ALENE  CLEAR     46  41  81 S8        29.98S
MULLAN PASS    MOCLDY    34  33  96 W3        29.99R
$$



USA.gov is the U.S. government's official web portal to all federal, state and local government web resources and services.